This demonstration page uses our WeatherBlox Daily Observations layout. Learn more.

Left ArrowRight Arrow

39.01783, -85.05884

Hourly Observations for August 21, 2016

Temp ( °F °C ) Dew Point ( °F °C ) Humidity (%) Winds ( mph kmh ) Pressure ( in mb ) Visibility ( mi km ) Precip ( " mm )
12:08 am 00:08 Mostly Cloudy 72 22 70 21 94 94 WSW 7 11 29.74 1007 10 16 N/A
12:20 am 00:20 Cloudy 72 22 72 22 100 100 SW 7 11 29.74 1007 10 16 N/A
12:52 am 00:52 Cloudy 71 21.7 70 21.1 96 96 WSW 6 9 29.76 1008 9 14 N/A
1:52 am 01:52 Cloudy 71 21.7 71 21.7 100 100 SW 7 11 29.77 1008 8 13 N/A
2:52 am 02:52 Mostly Cloudy 71 21.7 71 21.7 100 100 WSW 6 9 29.76 1008 7 11 N/A
3:14 am 03:14 Cloudy 72 22 72 22 100 100 WSW 5 7 29.77 1008 8 13 N/A
3:52 am 03:52 Cloudy 71 21.7 70 21.1 96 96 W 7 11 29.78 1008 9 14 N/A
4:52 am 04:52 Cloudy 70 21.1 68 20 93 93 WNW 10 17 29.79 1009 10 16 N/A
5:52 am 05:52 Cloudy 69 20.6 66 18.9 90 90 WNW 5 7 29.80 1009 10 16 N/A
6:52 am 06:52 Mostly Cloudy 69 20.6 66 18.9 90 90 WNW 8 13 29.83 1010 10 16 N/A
7:52 am 07:52 Cloudy 69 20.6 66 18.9 90 90 WNW 6 9 29.86 1011 10 16 N/A
8:52 am 08:52 Mostly Cloudy 68 20 65 18.3 90 90 WNW 7 11 29.89 1012 10 16 N/A
9:52 am 09:52 Partly Cloudy 71 21.7 64 17.8 79 79 WNW 7 11 29.89 1012 10 16 N/A
10:52 am 10:52 Partly Cloudy 73 22.8 63 17.2 71 71 WNW 13 20 29.91 1013 10 16 N/A
11:52 am 11:52 Mostly Cloudy 74 23.3 63 17.2 69 69 W 10 17 29.92 1013 10 16 N/A
12:52 pm 12:52 Mostly Cloudy 76 24.4 60 15.6 58 58 W 12 19 29.92 1013 10 16 N/A
1:52 pm 13:52 Partly Cloudy 77 25 58 14.4 52 52 WNW 12 19 29.93 1014 10 16 N/A
2:52 pm 14:52 Mostly Cloudy 77 25 59 15 54 54 WNW 14 22 29.93 1014 10 16 N/A
3:52 pm 15:52 Mostly Cloudy 78 25.6 60 15.6 54 54 WNW 13 20 29.93 1014 10 16 N/A
4:52 pm 16:52 Mostly Cloudy 79 26.1 59 15 50 50 WNW 12 19 29.94 1014 10 16 N/A
5:52 pm 17:52 Partly Cloudy 78 25.6 57 13.9 48 48 WNW 15 24 29.95 1014 10 16 N/A
6:52 pm 18:52 Partly Cloudy 76 24.4 56 13.3 50 50 WNW 13 20 29.96 1015 10 16 N/A
7:52 pm 19:52 Mostly Sunny 73 22.8 59 15 62 62 W 8 13 29.97 1015 10 16 N/A
8:52 pm 20:52 Mostly Clear 69 20.6 59 15 70 70 W 5 7 30.00 1016 10 16 N/A
9:52 pm 21:52 Mostly Clear 67 19.4 59 15 76 76 W 6 9 30.03 1017 10 16 N/A
10:52 pm 22:52 Mostly Clear 65 18.3 60 15.6 84 84 W 6 9 30.05 1018 10 16 N/A
11:52 pm 23:52 Mostly Clear 66 18.9 59 15 78 78 WNW 6 9 30.06 1018 10 16 N/A

Powered by AerisWeather